Tupelo, MS

4:27 AM CDT on April 28, 2017 (GMT -0500)
Tupelo Regional

Weather History for KTUP - May, 2013

Change the Weather History Date:

Thursday, May 9, 2013

  Actual Average Record
Temperature  
Mean Temperature 70 °F 69 °F  
Max Temperature 83 °F 80 °F 93 °F (1986)
Min Temperature 57 °F 58 °F 39 °F (1976)
Degree Days  
Heating Degree Days 0 1  
Month to date heating degree days 46 13  
Since 1 July heating degree days 2948 2945  
Cooling Degree Days 5 5  
Month to date cooling degree days 16 37  
Year to date cooling degree days 79 113  
Growing Degree Days 20 (Base 50)    
Moisture  
Dew Point 59 °F    
Average Humidity 70    
Maximum Humidity 93    
Minimum Humidity 47    
Precipitation  
Precipitation 0.00 in 0.18 in 1.62 in (2009)
Month to date precipitation 1.84 1.68  
Year to date precipitation 23.78 20.72  
Snow  
Snow 0.00 in 0.00 in - ()
Month to date snowfall 0.0 0.0  
Since 1 July snowfall T 2.1  
Snow Depth 0.00 in    
Sea Level Pressure  
Sea Level Pressure 30.04 in    
Wind  
Wind Speed 5 mph (SW)    
Max Wind Speed 17 mph    
Max Gust Speed 22 mph    
Visibility 10 miles    
Events      
T = Trace of Precipitation, MM = Missing Value Source: NWS Daily Summary

Daily Weather History Graph

Daily Weather History Graph

Search for Another Location

Airport or City:

Trip Planner

Search our weather history database for the weather conditions in past years. The results will help you decide how hot, cold, wet, or windy it might be!

Date:

Astronomy

May. 09, 2013 Rise Set
Actual Time 5:57 AM CDT 7:45 PM CDT
Civil Twilight 5:30 AM CDT 8:13 PM CDT
Nautical Twilight 4:57 AM CDT 8:46 PM CDT
Astronomical Twilight 4:22 AM CDT 9:21 PM CDT
Moon 5:40 AM CDT (5/9) 7:41 PM CDT (5/9)
Length of Visible Light 14h 42m
Length of Day
13h 48m
Waning Crescent, 0% of the Moon is Illuminated
May 9
Waning Crescent
May 9
New
May 17
First Quarter
May 24
Full
May 31
Last Quarter

Hourly Weather History & Observations

Time (CDT) Temp. Heat Index Dew Point Humidity Pressure Visibility Wind Dir Wind Speed Gust Speed Precip Events Conditions
12:53 AM 61.0 °F - 57.9 °F 90% 30.03 in 10.0 mi Calm Calm - N/A   Clear
1:53 AM 60.1 °F - 57.9 °F 93% 30.04 in 10.0 mi Calm Calm - N/A   Clear
2:53 AM 60.1 °F - 57.0 °F 90% 30.03 in 10.0 mi Calm Calm - N/A   Clear
3:53 AM 59.0 °F - 55.9 °F 90% 30.03 in 10.0 mi Calm Calm - N/A   Clear
4:53 AM 57.9 °F - 55.9 °F 93% 30.04 in 8.0 mi Calm Calm - N/A   Clear
5:53 AM 57.9 °F - 55.0 °F 90% 30.05 in 9.0 mi Calm Calm - N/A   Clear
6:53 AM 59.0 °F - 57.0 °F 93% 30.07 in 9.0 mi Calm Calm - N/A   Clear
7:53 AM 64.0 °F - 60.1 °F 87% 30.08 in 10.0 mi SSW 6.9 mph - N/A   Clear
8:53 AM 69.1 °F - 60.1 °F 73% 30.10 in 10.0 mi WSW 6.9 mph - N/A   Clear
9:53 AM 73.0 °F - 60.1 °F 64% 30.10 in 10.0 mi Variable 5.8 mph - N/A   Clear
10:53 AM 77.0 °F - 60.1 °F 56% 30.11 in 10.0 mi West 8.1 mph - N/A   Clear
11:53 AM 77.0 °F - 59.0 °F 54% 30.11 in 10.0 mi Variable 6.9 mph - N/A   Clear
12:53 PM 80.1 °F 81.1 °F 61.0 °F 52% 30.10 in 10.0 mi Variable 4.6 mph - N/A   Clear
1:53 PM 81.0 °F 81.9 °F 62.1 °F 52% 30.06 in 10.0 mi SSW 9.2 mph - N/A   Partly Cloudy
2:53 PM 82.0 °F 82.7 °F 61.0 °F 49% 30.03 in 10.0 mi SSW 10.4 mph - N/A   Partly Cloudy
3:53 PM 82.9 °F 83.7 °F 62.1 °F 49% 30.00 in 10.0 mi SSW 12.7 mph 19.6 mph N/A   Partly Cloudy
4:53 PM 80.1 °F 80.9 °F 60.1 °F 50% 29.99 in 10.0 mi SW 9.2 mph - N/A   Partly Cloudy
5:53 PM 79.0 °F - 60.1 °F 52% 29.99 in 10.0 mi SW 11.5 mph - N/A   Clear
6:53 PM 77.0 °F - 60.1 °F 56% 30.00 in 10.0 mi SW 6.9 mph - N/A   Clear
7:53 PM 73.0 °F - 60.1 °F 64% 30.00 in 10.0 mi WSW 3.5 mph - N/A   Clear
8:53 PM 72.0 °F - 61.0 °F 68% 30.01 in 10.0 mi SSW 3.5 mph - N/A   Mostly Cloudy
9:53 PM 70.0 °F - 61.0 °F 73% 30.01 in 10.0 mi SSW 4.6 mph - N/A   Partly Cloudy
10:53 PM 70.0 °F - 62.1 °F 76% 30.01 in 10.0 mi SSW 4.6 mph - N/A   Overcast
11:53 PM 69.1 °F - 62.1 °F 78% 29.99 in 10.0 mi South 4.6 mph - N/A   Partly Cloudy